Temp
23 22 22 20 20 20 20 22 23 23 22 22 23 22 19 17 19 18 18 18 18 18 18 17 18 17 17 17 18 17 18 18 18 17 17 17 16 16 16 16 16 16 16 16 17 17 17 17 17
22 21 21 21 20 20 20 22 21 21 21 22 22 20 19 18 17 18 18 18 18 18 18 18 18 17 17 17 17 18 18 18 17 17 17 17 16 16 16 16 16 15 16 16 16 17 17 17 18
23 22 22 19 20 21 21 21 21 22 23 23 21 20 19 17 18 20 19 19 18 18 18 18 18 17 17 17 18 18 18 18 17 17 17 17 17 17 17 16 16 16 16 17 17 17 17 18 18
24 23 23 21 23 23 22 21 22 23 23 23 22 19 19 19 19 19 19 18 19 19 19 18 18 18 17 17 18 18 18 17 17 17 17 17 17 17 18 17 16 17 17 17 17 17 18 18 18
25 24 21 23 23 23 23 23 23 22 22 21 21 19 17 19 19 20 19 19 19 19 18 17 18 17 17 18 18 18 18 17 18 17 18 17 17 17 17 17 17 17 17 17 17 17 17 17 17
25 24 21 21 23 23 23 23 22 21 21 20 20 18 17 19 20 20 19 19 18 18 18 17 17 18 17 18 18 18 18 18 18 18 17 17 17 17 17 17 17 17 18 18 17 17 17 17 17
22 20 22 23 22 23 23 24 22 21 22 21 20 17 17 18 20 20 19 19 18 18 18 18 17 18 17 18 18 18 18 17 17 18 18 18 17 17 17 17 18 18 18 18 18 17 17 17 17
26 21 23 23 23 23 24 23 22 23 22 22 23 17 17 18 19 19 19 19 18 18 18 18 19 19 19 18 18 18 18 18 17 18 17 18 18 18 18 17 17 17 18 18 18 17 17 17 17
25 20 22 24 24 23 24 23 23 23 22 22 21 21 21 20 19 19 19 18 18 19 18 19 19 19 19 19 17 18 18 18 18 18 18 18 18 18 18 18 18 18 19 18 18 18 17 17 17
22 21 24 25 25 24 24 23 23 22 22 20 20 21 20 20 19 19 20 20 19 19 19 19 19 19 19 19 18 18 18 18 18 18 18 18 19 18 18 18 18 19 19 19 19 19 19 18 18
25 24 25 25 25 25 24 24 23 22 22 22 20 20 20 20 20 20 20 20 20 20 19 19 19 19 19 19 19 19 18 19 19 18 18 19 19 19 19 19 19 19 19 19 19 19 19 19 18
25 25 26 26 26 25 24 24 23 23 23 23 23 22 21 20 20 21 21 20 20 20 20 19 19 19 19 19 19 19 19 19 19 18 18 18 18 18 18 18 19 19 19 19 19 19 19 19 19
25 24 26 25 26 26 25 23 23 23 23 23 22 21 21 21 21 21 21 20 20 20 20 19 19 19 19 19 19 19 19 19 19 18 18 18 18 18 18 18 18 18 18 19 18 19 20 19 19
24 25 24 25 25 25 23 23 24 22 23 22 22 21 21 21 21 21 21 20 20 20 20 20 19 19 19 18 18 18 18 18 18 18 18 18 18 18 18 18 18 18 18 18 18 18 19 19 19
24 25 24 24 24 24 25 23 22 22 23 21 22 22 22 22 21 22 22 22 22 21 20 20 19 19 19 18 18 18 18 18 18 18 18 18 18 18 18 18 18 18 18 18 18 19 18 19 19
23 21 22 24 24 24 24 22 22 23 22 21 21 21 22 22 22 22 22 22 22 21 21 20 20 20 19 19 18 18 18 18 18 18 18 18 18 18 18 18 18 18 18 18 18 18 18 18 18
22 23 23 24 23 24 24 22 22 23 23 22 22 22 22 22 22 22 23 23 23 22 21 21 21 20 20 19 18 18 18 18 18 18 18 18 18 18 18 18 18 18 19 18 18 18 18 18 18
24 23 23 24 24 23 23 22 21 22 23 23 23 22 22 22 23 22 22 23 23 23 22 21 21 20 19 19 19 19 19 19 18 18 18 18 18 18 18 18 18 18 18 19 19 18 18 18 18
24 24 25 25 24 24 23 22 21 22 23 23 23 23 23 23 24 23 23 23 23 23 22 21 21 21 20 19 19 20 19 19 19 19 18 18 18 18 18 18 18 18 18 18 18 18 19 18 18
23 24 24 24 25 25 22 22 21 20 22 23 24 24 24 24 24 24 24 23 23 23 23 22 21 21 21 20 20 20 20 19 19 19 19 19 19 19 18 18 18 19 19 19 19 19 19 19 18
23 23 24 25 24 23 22 22 21 21 22 23 23 24 25 25 25 25 24 24 23 23 23 22 21 21 21 20 20 20 20 20 20 20 20 19 19 19 19 19 19 19 19 19 18 19 19 18 18
24 24 25 25 23 22 22 21 21 21 20 20 22 24 25 25 25 25 25 24 24 24 23 22 22 21 21 21 20 20 20 20 20 20 19 19 19 19 19 18 18 18 18 18 19 19 18 18 18
25 24 24 24 21 22 21 20 20 20 23 21 22 23 24 25 26 25 25 25 25 24 23 23 22 21 21 21 20 20 20 20 20 20 20 19 19 19 18 18 18 18 18 18 18 18 18 18 18
24 24 21 18 19 20 21 20 21 22 23 23 24 26 26 26 26 25 25 25 24 24 23 23 22 21 21 21 20 20 20 20 20 20 20 19 19 19 18 18 18 18 18 17 17 17 17 18 18
23 22 21 22 20 21 19 20 21 24 23 24 24 27 27 27 26 25 25 25 25 24 24 23 22 22 21 20 20 20 20 20 20 20 20 19 19 19 18 18 17 17 17 18 17 17 17 17 17
24 23 21 25 22 21 20 23 25 24 25 25 26 27 27 26 26 26 26 25 25 25 24 23 22 22 21 20 20 20 20 19 20 20 19 19 19 18 18 17 17 18 18 18 18 17 17 17 17
25 24 22 18 17 20 19 21 23 23 25 24 25 26 27 27 27 26 25 25 25 25 24 23 23 22 22 21 20 20 19 20 20 20 20 19 19 18 18 18 18 18 18 18 18 18 17 17 17
26 23 24 18 23 25 21 20 22 25 27 25 25 26 27 27 26 26 26 26 25 25 25 24 23 23 22 21 20 20 20 20 20 20 20 19 19 19 18 18 18 18 19 18 18 18 18 17 17
25 23 18 18 18 20 21 22 20 24 24 25 24 29 28 28 28 28 26 26 26 25 25 25 24 23 22 22 20 20 20 20 20 20 19 19 19 19 19 19 19 19 18 18 17 17 16 16 16
25 24 21 22 23 16 18 22 24 22 22 24 27 28 28 27 28 28 27 27 26 25 25 25 24 23 23 22 21 20 20 20 20 20 20 19 19 19 19 19 19 18 18 18 17 16 16 16 16
Height
1480 1479 1480 1481 1492 1492 1505 1500 1490 1493 1494 1494 1496 1498 1503 1507 1507 1518 1510 1513 1515 1517 1519 1521 1521 1521 1522 1523 1523 1522 1522 1522 1521 1520 1519 1518 1519 1494 1526 1522 1532 1536 1540 1543 1546 1549 1550 1551 1552
1480 1480 1482 1481 1500 1513 1511 1494 1498 1495 1495 1495 1498 1501 1503 1509 1507 1509 1512 1515 1518 1520 1521 1522 1523 1524 1525 1524 1524 1524 1525 1526 1526 1525 1524 1522 1522 1525 1528 1531 1535 1538 1542 1546 1549 1551 1552 1553 1554
1481 1482 1485 1488 1502 1510 1509 1499 1498 1497 1496 1496 1501 1503 1506 1510 1509 1512 1514 1517 1520 1522 1524 1525 1526 1527 1527 1526 1526 1527 1528 1529 1530 1530 1530 1528 1527 1530 1533 1537 1540 1541 1545 1549 1551 1553 1554 1555 1556
1483 1484 1486 1497 1503 1497 1498 1500 1499 1498 1500 1500 1502 1506 1511 1512 1514 1515 1517 1520 1522 1524 1526 1528 1529 1529 1530 1529 1529 1530 1531 1533 1534 1535 1536 1535 1536 1538 1541 1544 1543 1545 1550 1551 1553 1555 1556 1558 1559
1484 1484 1497 1502 1502 1497 1497 1498 1502 1501 1503 1505 1504 1512 1514 1516 1516 1517 1520 1522 1524 1526 1529 1530 1531 1532 1532 1532 1533 1534 1535 1537 1539 1540 1541 1543 1543 1544 1545 1547 1547 1549 1552 1554 1556 1558 1559 1561 1562
1483 1486 1507 1514 1504 1499 1499 1501 1502 1502 1506 1508 1510 1513 1518 1518 1519 1521 1523 1525 1527 1529 1531 1532 1534 1534 1535 1535 1537 1538 1539 1541 1543 1544 1544 1546 1548 1549 1550 1551 1553 1555 1557 1558 1559 1561 1562 1563 1565
1484 1493 1507 1503 1507 1503 1500 1502 1504 1505 1507 1511 1511 1516 1519 1520 1522 1524 1526 1528 1529 1531 1533 1534 1535 1536 1537 1538 1540 1541 1542 1544 1546 1547 1548 1550 1551 1552 1554 1556 1557 1557 1557 1561 1562 1563 1565 1566 1566
1484 1490 1503 1503 1507 1507 1502 1504 1507 1506 1509 1511 1513 1518 1521 1521 1524 1526 1528 1530 1531 1533 1535 1536 1537 1538 1539 1540 1542 1543 1545 1547 1548 1549 1551 1553 1554 1555 1557 1558 1560 1560 1560 1562 1563 1565 1566 1567 1568
1486 1501 1509 1501 1501 1501 1501 1505 1508 1508 1509 1512 1513 1514 1518 1520 1524 1526 1529 1531 1533 1534 1536 1537 1539 1540 1541 1542 1544 1545 1547 1549 1550 1551 1553 1554 1555 1558 1559 1560 1561 1562 1562 1563 1565 1566 1567 1568 1569
1486 1502 1499 1494 1493 1496 1501 1503 1507 1510 1511 1513 1512 1517 1520 1522 1525 1527 1528 1531 1533 1535 1536 1537 1539 1541 1542 1544 1545 1547 1548 1549 1551 1553 1554 1556 1557 1559 1560 1561 1562 1562 1564 1565 1566 1567 1568 1569 1570
1490 1499 1492 1493 1492 1493 1499 1504 1505 1509 1514 1512 1512 1517 1520 1523 1526 1528 1530 1532 1534 1537 1537 1538 1540 1541 1543 1544 1545 1547 1549 1550 1552 1554 1556 1557 1558 1560 1561 1562 1563 1563 1564 1565 1567 1568 1569 1569 1570
1495 1494 1493 1493 1493 1496 1498 1502 1505 1506 1507 1511 1514 1516 1520 1523 1525 1527 1530 1533 1535 1537 1538 1539 1541 1542 1543 1544 1546 1548 1550 1551 1552 1554 1556 1558 1559 1560 1561 1562 1563 1564 1565 1566 1567 1567 1568 1569 1570
1495 1496 1497 1496 1495 1495 1496 1498 1501 1507 1507 1512 1517 1519 1521 1523 1526 1528 1531 1534 1535 1537 1538 1540 1541 1542 1544 1545 1547 1549 1550 1552 1553 1554 1556 1558 1559 1560 1562 1563 1563 1564 1565 1566 1567 1567 1567 1568 1569
1497 1497 1498 1499 1498 1499 1499 1503 1502 1508 1508 1512 1516 1519 1521 1524 1525 1528 1531 1534 1535 1536 1538 1540 1542 1543 1544 1546 1548 1550 1551 1553 1553 1555 1557 1558 1559 1560 1561 1562 1563 1564 1565 1566 1566 1566 1567 1568 1568
1498 1500 1499 1499 1499 1501 1501 1507 1506 1506 1508 1512 1515 1518 1520 1522 1526 1527 1529 1532 1534 1536 1538 1539 1542 1544 1544 1546 1548 1550 1552 1553 1554 1555 1557 1558 1559 1561 1562 1562 1563 1563 1564 1565 1565 1566 1566 1566 1567
1501 1504 1512 1499 1497 1499 1501 1515 1506 1508 1510 1511 1514 1517 1519 1521 1522 1526 1529 1531 1534 1536 1538 1540 1542 1543 1545 1546 1548 1550 1552 1553 1554 1556 1557 1558 1559 1560 1560 1561 1561 1562 1563 1564 1564 1565 1564 1564 1565
1508 1515 1512 1504 1498 1498 1502 1511 1506 1508 1511 1513 1513 1515 1517 1520 1522 1525 1527 1530 1533 1536 1538 1540 1542 1543 1545 1547 1548 1550 1551 1552 1554 1555 1557 1558 1558 1558 1559 1559 1560 1560 1561 1562 1563 1564 1563 1562 1562
1516 1514 1510 1508 1499 1499 1503 1507 1506 1507 1509 1510 1513 1515 1516 1517 1517 1522 1525 1529 1532 1536 1539 1541 1543 1544 1546 1547 1548 1549 1550 1551 1553 1555 1556 1557 1557 1558 1558 1559 1559 1560 1560 1561 1562 1562 1562 1560 1560
1501 1506 1504 1497 1494 1498 1503 1504 1506 1506 1508 1510 1512 1513 1514 1515 1517 1522 1524 1527 1531 1535 1538 1540 1542 1544 1545 1546 1548 1550 1551 1552 1554 1556 1556 1557 1558 1558 1558 1558 1559 1559 1559 1559 1560 1560 1560 1559 1559
1506 1508 1505 1497 1494 1497 1505 1503 1501 1504 1504 1504 1507 1509 1510 1513 1515 1518 1520 1522 1526 1531 1535 1538 1540 1543 1545 1547 1548 1550 1552 1553 1555 1556 1556 1557 1557 1557 1557 1553 1558 1558 1558 1558 1558 1558 1557 1558 1558
1509 1511 1507 1505 1498 1500 1502 1505 1506 1503 1503 1503 1503 1504 1506 1508 1512 1515 1516 1517 1522 1527 1532 1535 1538 1541 1544 1546 1548 1549 1551 1552 1553 1554 1555 1557 1556 1556 1556 1556 1556 1556 1556 1555 1555 1554 1554 1554 1554
1512 1495 1498 1502 1510 1526 1510 1536 1509 1505 1502 1499 1498 1499 1501 1504 1507 1510 1513 1515 1518 1524 1529 1533 1535 1539 1542 1545 1546 1547 1549 1550 1551 1551 1552 1553 1553 1553 1553 1553 1554 1554 1554 1553 1552 1552 1552 1551 1551
1501 1494 1498 1502 1517 1519 1521 1533 1514 1502 1500 1495 1493 1495 1497 1501 1502 1505 1508 1511 1515 1520 1525 1529 1532 1537 1540 1542 1544 1546 1547 1548 1550 1550 1551 1551 1551 1551 1552 1552 1552 1552 1551 1550 1550 1549 1549 1549 1549
1492 1496 1506 1515 1525 1545 1527 1532 1520 1506 1496 1489 1486 1487 1491 1492 1493 1497 1503 1509 1513 1517 1521 1525 1529 1534 1535 1539 1542 1543 1545 1547 1547 1549 1549 1549 1550 1550 1550 1550 1550 1549 1548 1548 1548 1548 1548 1547 1548
1494 1509 1544 1545 1551 1547 1529 1534 1512 1491 1486 1484 1482 1483 1484 1485 1488 1491 1496 1503 1509 1513 1516 1521 1526 1529 1531 1535 1538 1540 1543 1545 1546 1547 1548 1548 1549 1548 1548 1548 1547 1547 1546 1546 1546 1546 1546 1547 1547
1501 1509 1538 1545 1554 1543 1529 1526 1501 1481 1480 1479 1481 1482 1483 1483 1483 1486 1490 1498 1505 1509 1513 1516 1522 1527 1529 1532 1535 1537 1539 1542 1543 1544 1545 1545 1544 1544 1544 1545 1544 1543 1542 1541 1542 1543 1544 1544 1545
1498 1511 1507 1541 1549 1546 1537 1513 1489 1478 1478 1480 1479 1479 1479 1479 1481 1486 1491 1495 1501 1506 1509 1513 1518 1523 1527 1529 1532 1533 1535 1538 1540 1541 1542 1542 1542 1542 1542 1542 1541 1541 1540 1540 1540 1541 1542 1542 1542
1484 1489 1517 1535 1543 1542 1540 1531 1518 1485 1477 1477 1477 1476 1477 1478 1482 1485 1488 1491 1496 1502 1507 1510 1514 1518 1522 1526 1528 1531 1533 1535 1537 1538 1540 1541 1541 1541 1541 1541 1541 1540 1539 1539 1539 1539 1540 1541 1541
1491 1500 1514 1524 1536 1552 1553 1532 1489 1481 1475 1474 1473 1473 1475 1477 1480 1483 1486 1489 1493 1498 1503 1508 1511 1513 1517 1522 1526 1529 1531 1533 1535 1536 1538 1539 1539 1539 1539 1539 1539 1539 1540 1540 1540 1540 1541 1540 1541
1477 1490 1501 1523 1530 1547 1544 1525 1475 1473 1471 1471 1469 1473 1474 1477 1480 1481 1484 1487 1491 1495 1501 1505 1509 1513 1517 1521 1524 1527 1529 1531 1533 1533 1534 1535 1536 1537 1539 1539 1539 1539 1539 1538 1538 1539 1539 1540 1540
Wind_Speed
7 8 5 3 4 5 3 4 2 3 3 2 11 6 9 6 1 2 17 14 16 15 14 13 12 12 12 11 13 15 13 12 14 17 17 16 12 27 25 26 23 27 21 17 15 10 14 12 13
8 8 3 2 5 4 4 4 5 4 9 21 13 9 6 3 4 16 18 17 15 16 14 13 12 12 11 10 14 15 15 15 17 19 21 18 17 26 23 24 24 24 21 15 14 9 12 13 17
7 6 2 4 3 2 2 3 4 9 3 6 6 10 4 3 14 21 18 19 17 16 15 13 12 11 12 12 15 16 18 17 18 19 21 25 29 27 24 23 22 18 17 14 13 15 16 18 20
3 1 2 5 4 3 5 5 5 8 18 20 11 6 7 4 13 14 20 18 16 16 15 14 12 12 14 14 15 15 17 15 15 16 19 27 31 34 32 29 31 20 16 17 17 18 20 20 19
3 3 5 4 4 3 5 9 9 1 6 15 13 5 7 6 11 20 19 18 17 16 15 13 12 11 13 14 15 17 17 16 15 15 16 19 22 23 25 23 20 16 14 16 17 19 18 17 15
3 3 4 2 2 4 3 12 15 11 17 18 13 7 2 5 15 19 18 17 17 15 14 13 11 11 11 13 14 14 16 15 14 15 14 14 16 19 19 18 17 15 14 14 16 15 14 13 13
5 4 3 2 5 3 3 6 6 10 14 6 14 4 4 13 18 17 17 15 15 14 12 13 12 11 11 11 12 12 14 15 14 14 14 13 14 15 16 16 16 14 12 12 12 13 12 13 11
3 4 3 2 3 2 8 4 10 13 5 17 14 5 7 22 18 17 16 14 13 13 12 11 11 11 10 10 12 12 13 13 12 13 12 13 13 13 14 15 12 12 12 11 13 12 10 8 6
2 5 1 1 4 5 14 5 12 4 15 5 0 16 23 22 18 18 17 14 12 12 12 11 10 10 10 10 10 12 12 11 12 12 10 12 14 13 12 11 11 12 13 11 11 10 8 6 5
4 4 2 2 2 6 11 14 8 6 10 6 17 21 24 21 19 19 19 16 14 13 12 11 11 11 11 11 12 12 13 12 12 13 12 11 11 11 10 10 10 10 10 11 9 8 7 8 7
4 1 1 4 9 20 11 12 8 19 1 14 26 27 26 22 19 18 18 16 15 12 12 11 11 12 12 12 10 11 11 10 10 10 10 11 11 9 9 8 8 9 10 9 8 8 8 7 6
4 9 5 4 14 16 11 17 11 7 7 22 25 27 27 24 21 18 18 16 17 13 11 10 11 12 11 12 12 10 11 12 11 11 11 10 8 7 6 6 6 5 5 6 8 9 9 9 8
5 3 6 7 13 12 19 15 10 6 19 24 24 26 27 24 21 18 16 16 15 13 12 9 10 11 12 11 12 12 12 11 12 10 10 9 6 6 5 5 5 5 3 5 5 7 9 10 8
4 9 3 5 10 4 10 6 10 15 24 24 27 29 27 25 23 20 19 17 16 13 11 9 10 12 11 11 12 11 11 11 12 11 11 9 7 7 5 6 6 7 6 6 6 7 9 11 11
4 3 3 5 4 5 7 3 1 27 26 29 29 29 28 27 26 23 17 16 14 13 12 9 10 11 10 7 9 13 13 14 12 12 11 10 9 8 7 7 6 5 7 8 8 10 11 13 15
2 4 3 3 0 5 4 3 2 26 27 28 31 30 30 31 29 25 21 17 14 15 14 11 11 10 10 9 8 10 13 14 13 13 12 11 10 10 10 10 10 9 9 11 11 12 11 14 16
4 0 1 6 4 2 3 2 7 25 23 20 25 29 32 33 33 30 25 20 17 15 16 14 11 10 10 8 8 9 9 14 11 14 14 12 11 11 11 10 9 11 9 9 9 10 9 9 9
4 1 3 3 3 4 5 2 11 22 22 23 23 24 28 32 35 32 29 26 22 18 17 16 12 11 10 9 7 7 6 11 12 11 11 11 11 11 11 10 8 8 8 8 8 9 11 8 9
3 4 3 3 4 3 4 5 10 14 16 19 23 26 29 33 31 29 29 32 29 24 20 20 17 13 13 11 10 8 9 8 9 9 8 7 7 8 10 9 8 9 11 10 9 12 11 11 10
4 4 4 5 1 3 1 5 8 10 11 25 28 30 31 29 28 28 30 34 36 30 24 22 20 17 14 9 6 8 7 9 9 8 9 8 8 9 10 8 11 11 11 13 15 15 11 10 9
3 4 3 4 3 3 6 5 3 5 9 16 23 29 30 30 27 24 25 28 32 33 28 25 21 19 16 12 11 10 9 10 11 12 10 8 7 9 8 8 9 10 10 11 10 11 12 12 11
3 6 1 2 3 2 4 4 4 1 7 8 18 26 29 26 29 27 28 28 30 32 30 27 25 22 19 17 15 15 12 11 7 10 7 7 9 7 7 7 7 6 8 7 9 11 10 10 11
6 4 3 3 4 3 5 4 7 2 5 7 13 22 28 29 30 33 31 30 28 30 31 29 28 24 23 21 19 16 15 12 11 7 10 11 13 4 7 7 8 10 11 11 10 9 8 7 4
7 5 7 5 4 3 2 3 5 2 5 4 7 23 31 31 29 34 36 30 26 25 31 32 30 22 25 25 22 18 17 15 15 13 12 8 8 8 9 10 9 10 10 9 6 6 6 6 5
5 6 3 5 4 5 3 2 9 6 7 5 7 12 18 24 28 30 39 37 31 27 26 36 35 23 22 27 23 21 19 16 14 10 9 9 9 9 11 9 9 10 10 8 7 6 6 7 8
3 5 5 2 2 4 3 3 5 5 3 8 11 14 13 16 23 25 33 39 35 29 28 32 39 30 23 28 27 24 21 19 16 13 11 11 11 11 11 10 10 10 8 7 7 8 9 9 10
5 4 4 7 2 3 4 7 8 6 3 6 7 10 12 14 18 21 24 34 38 32 29 31 32 32 28 19 23 23 22 22 19 14 13 12 12 12 10 9 9 9 7 6 6 7 9 9 10
7 6 3 3 3 1 5 5 5 5 3 4 6 10 4 7 12 15 20 26 36 35 29 29 28 30 28 23 22 21 23 22 20 17 15 13 12 10 9 9 8 7 4 3 4 5 6 7 7
2 2 7 6 3 5 1 7 7 8 8 8 10 11 9 8 9 11 15 21 25 34 29 27 26 28 29 25 25 23 25 24 22 20 18 15 14 11 10 8 7 4 2 2 2 2 2 2 2
4 6 6 5 3 2 3 6 5 9 8 12 15 13 10 9 9 9 11 15 23 31 29 26 25 27 27 24 25 23 26 26 24 22 20 18 15 13 11 9 7 5 4 2 2 2 1 2 2
Wind_Direction
90 49 38 26 47 62 19 33 32 55 64 339 138 133 114 50 86 182 140 149 147 142 130 130 121 109 102 111 118 126 118 83 88 76 87 98 141 136 128 129 146 161 157 163 153 121 120 111 106
68 45 47 25 75 50 317 343 46 57 120 102 78 85 72 71 98 135 144 148 149 142 134 127 120 108 107 109 115 120 116 96 95 90 85 88 111 119 113 118 126 132 140 143 151 120 119 116 112
24 10 324 88 81 121 128 50 93 134 44 87 103 64 68 90 130 139 145 146 148 139 131 130 125 123 110 108 117 122 125 111 107 95 89 86 97 109 97 110 120 114 126 132 125 116 115 119 116
338 18 58 68 24 29 121 143 139 103 72 96 98 64 68 115 122 139 143 144 141 140 139 134 124 114 109 106 116 126 129 126 113 100 94 98 104 103 97 95 92 106 111 111 120 119 118 122 119
13 54 49 45 20 49 77 134 145 63 84 94 104 92 93 125 143 145 145 146 149 143 144 134 122 120 112 114 118 121 128 126 117 111 106 109 114 113 109 112 108 113 117 123 124 125 123 126 121
58 77 55 61 60 64 58 136 104 87 101 99 92 93 107 149 155 150 151 151 151 149 147 139 134 127 117 121 124 129 130 127 125 115 114 116 116 115 117 120 122 123 127 132 133 133 128 127 127
107 81 144 108 127 110 152 131 113 117 109 86 134 81 119 148 158 150 153 151 151 150 149 146 144 143 136 130 128 134 137 131 130 124 121 119 117 120 123 127 127 133 139 136 142 138 133 130 127
86 90 71 32 185 144 146 97 137 111 78 127 109 147 167 164 157 151 154 154 158 154 151 150 150 150 151 144 142 139 139 137 137 133 133 127 121 121 124 127 131 139 125 148 143 145 142 143 142
126 64 32 347 153 144 142 123 157 126 138 76 268 151 155 159 160 157 158 161 165 160 156 160 160 157 157 165 147 149 148 147 143 141 139 136 136 132 128 131 134 141 141 148 153 163 169 176 182
70 89 184 237 198 136 152 134 145 119 130 73 112 146 156 160 167 167 164 158 160 161 161 162 167 170 169 176 171 167 163 168 159 151 142 141 142 142 145 141 142 147 148 152 162 173 186 209 209
50 50 184 9 114 129 129 127 133 135 168 167 148 154 164 168 173 176 171 166 150 149 158 162 172 173 178 180 177 178 181 174 166 158 157 154 153 153 157 165 167 161 165 171 180 186 191 197 200
102 28 58 345 122 127 143 138 138 144 184 172 160 162 168 175 179 181 179 172 166 159 159 164 171 173 174 183 183 184 185 177 166 153 157 157 149 156 162 166 169 172 198 198 209 201 198 189 194
72 12 30 71 130 134 145 153 160 159 158 167 167 171 179 183 186 191 190 184 178 171 172 173 172 172 170 168 177 183 184 179 182 183 179 183 191 184 183 168 171 186 187 194 218 214 215 218 219
90 105 29 34 38 103 113 133 131 154 162 168 174 181 188 192 194 197 202 196 196 185 180 180 181 171 178 187 195 200 203 195 196 192 198 203 211 205 223 222 232 237 246 226 240 229 222 229 245
79 68 2 44 25 129 92 16 220 160 169 170 181 189 194 200 203 207 206 203 201 197 187 178 184 185 193 204 200 211 215 222 218 213 217 222 221 226 240 245 253 275 252 246 236 234 252 253 253
39 48 34 237 246 147 90 236 157 168 167 176 186 195 204 208 210 213 215 213 210 209 197 185 184 186 191 197 200 214 222 224 228 226 226 239 248 248 260 263 264 272 260 246 252 249 257 260 259
10 345 276 321 144 83 136 213 178 183 182 189 192 199 207 215 218 218 220 219 218 217 208 192 181 173 168 185 218 227 236 223 224 224 233 242 255 258 262 265 264 265 253 244 244 238 261 257 258
217 236 259 237 178 169 134 241 166 183 192 206 209 209 212 220 225 223 225 227 225 225 217 205 194 181 178 184 209 229 225 204 213 222 232 243 244 244 251 251 246 258 271 265 265 267 271 274 277
189 185 256 220 198 138 128 143 190 178 199 213 222 225 227 226 232 233 232 231 228 224 223 212 204 193 201 206 206 213 210 202 200 204 210 219 231 240 247 255 255 267 272 255 262 271 282 276 279
8 353 299 311 141 22 89 205 164 181 209 212 218 229 234 238 238 242 238 232 228 225 221 219 215 205 213 214 223 216 214 208 212 226 236 235 252 262 266 261 257 265 275 267 271 279 273 283 278
183 210 231 226 6 57 335 345 144 227 226 226 227 228 234 242 241 238 235 228 224 222 221 221 216 221 220 217 212 218 223 230 232 238 247 237 267 277 275 270 278 281 283 268 270 276 282 272 267
205 226 289 74 58 311 23 286 322 207 206 221 231 226 228 237 240 234 231 231 225 222 221 222 223 223 224 221 222 228 245 260 278 245 247 253 265 272 291 282 274 286 296 293 285 285 287 271 256
231 86 89 72 90 29 358 68 269 344 254 250 239 234 230 236 242 234 231 231 231 226 224 222 223 229 231 226 228 238 249 264 266 276 248 259 275 252 286 285 291 302 301 295 281 275 274 277 262
165 67 49 56 61 9 278 119 291 230 213 247 237 238 236 244 235 231 228 229 227 229 225 222 219 228 234 228 229 240 251 258 267 275 286 276 301 297 287 287 298 306 308 295 287 270 259 258 248
82 71 0 348 12 224 259 77 240 238 235 210 207 210 219 224 229 226 223 221 223 229 231 220 221 238 231 224 230 236 245 250 256 267 267 268 277 288 287 292 297 299 302 296 269 266 264 256 252
106 139 150 234 258 278 223 243 255 207 268 249 225 216 212 235 233 225 222 222 221 228 232 229 224 233 232 229 231 235 240 239 243 247 258 259 272 279 284 280 286 297 300 277 253 245 251 254 259
196 195 172 102 7 7 298 293 308 294 228 198 207 206 246 233 223 225 226 226 222 227 234 235 237 235 238 227 219 232 235 230 237 247 245 257 270 273 269 272 282 300 299 279 251 238 240 246 253
163 148 95 36 166 267 315 291 244 300 265 232 219 232 253 208 213 222 221 227 225 229 233 237 240 236 237 237 231 239 225 227 235 241 245 262 267 263 259 267 276 288 288 275 255 248 251 260 266
126 117 57 109 106 154 180 274 218 249 238 221 232 229 227 216 197 204 218 227 227 225 229 234 238 229 231 235 232 235 226 231 237 244 253 256 252 250 246 259 264 261 259 273 249 244 258 259 270
143 166 131 126 215 62 137 273 238 244 259 242 241 241 238 216 215 216 218 223 223 226 229 232 236 228 232 235 235 239 234 236 239 245 243 241 245 249 248 254 233 225 221 221 197 193 220 255 272